Find Starlink 33607

NORAD ID: 63323 Int'l Des: 2025-057 Owner: SPXS Country: US Constellation: starlink operational
LEOCIRCULAR

現在のビュー

3D地球を読み込み中...

About Starlink 33607

Starlink 33607 (NORAD 63323) is a starlink constellation satellite (v2 mini) launched Mar 18, 2025 by SPXS of US. It operates in LEO, CIRCULAR orbit with a mass of 575.00 kg.

次回通過

Passes for default location (London). Set your location on the main map for personalized predictions.

高度履歴

Loading altitude history...

軌道要素

1 63323U 25057S 26264.29842236 .00011708 00000-0 43426-3 0 9991
2 63323 42.9996 6.1261 0001153 269.3438 90.7282 15.27582499 85653
Epoch: Sep 21, 2026 • Age: 18 hours

現在のステータス

高度 483.4 km
遠地点 / 近地点 N/A
速度 7.63 km/s
衛星直下点 24.79°N, 135.84°E
打ち上げ日 Mar 18, 2025
運用期間 1.5 years
タイプ internet

技術仕様

分類 Payload
質量 575.00 kg
乾燥質量 530.00 kg
長さ 0.30 m
スパン 29.00 m
形状 ? Box + pan
製造者 SPXS
バスタイプ Starlink V2MO
フェーズステータス In Orbit
所有者/国 SPXS/US

Most Searched